Погода в Диво

Кот-д’Ивуар     5°50′05″N   5°21′18″W
темп.,
°C
ветер,
м/с
пор.,
м/с
влажн.,
%
обл.,
%
осадки,
мм/ч
давл.,
гПа
погр.,
м
31 июля, сб
сб3100:00+22юз179731 0.2 1015297
03:00+21юз169936 0.0 1014241
06:00+21зюз159982 0.0 1015181
09:00+26юз2476100 0.0 1017805
12:00+28ююз236882 0.9 10151280
15:00+26ююз248542 3.2 1013762
18:00+24ююз27925 5.6 1014424
21:00+22юз289711 0.0 1016394
1 августа, вс
вс100:00+22зюз299926 0.0 1017418
03:00+21зюз169935 0.0 1016271
06:00+21зюз169933 0.0 1016251
09:00+25юз258150 0.1 1018725
12:00+26ююз248062 2.4 1017918
15:00+27ююз257751 2.7 10151082
18:00+25ю378152 3.9 1015401
21:00+22ююз179471 0.0 1018272
2 августа, пн
пн200:00+21зюз159711 0.0 1018170
03:00+21з159825 0.0 1016169
06:00+20з149833 0.0 1017126
09:00+25зюз237579 0.0 1018692
12:00+30юз225584 0.1 10161548
15:00+28ю236799 0.1 1014366
18:00+26ю247698 0.1 1014181
21:00+22ю278778 0.0 1016258
3 августа, вт
вт300:00+21юз149334 0.0 1016130
03:00+21зюз169694 0.0 1014200
06:00+20з159460 0.0 1015177
09:00+25зюз257069 0.0 1017698
12:00+29зюз235494 0.0 10161595
15:00+27ююз246587 0.1 1014850
18:00+25ю2775100 0.1 1015424
21:00+22ююз168795 0.0 1017199
4 августа, ср
ср400:00+21юз1193100 0.0 101735
03:00+21юз1497100 0.0 1015152
06:00+20ююз159934 0.0 1017162
09:00+25юз247467 0.0 1018876
12:00+30юз245598 0.3 10161667
15:00+26ю366899 0.1 1015593
18:00+25ю377136 0.1 1015671
21:00+22ююз27887 0.0 1018329